N5XJB Weather Reports


time (UTC)temp
F
wind
direction
speed
knots
gust
knots
rain 1hr
in
rain 24hr
in
rain mn
in
humidity
%
barometer
mb
20260502170442 71 60 0.9 0.9 0.00 0.00 0.00 54 1022.0
20260502163925 71 308 1.7 1.7 0.00 0.00 0.00 58 1022.0
20260502163422 71 301 1.7 1.7 0.00 0.00 0.00 57 1021.6
20260502162920 70 348 2.6 2.6 0.00 0.00 0.00 56 1022.0
20260502162416 70 324 1.7 1.7 0.00 0.00 0.00 58 1022.0
20260502161913 71 300 0.0 0.0 0.00 0.00 0.00 60 1022.0
20260502161409 70 306 1.7 1.7 0.00 0.00 0.00 59 1022.0
20260502160907 69 302 0.0 0.0 0.00 0.00 0.00 62 1022.0
20260502160406 69 342 1.7 1.7 0.00 0.00 0.00 64 1021.6
20260502152334 67 18 1.7 1.7 0.00 0.00 0.00 69 1021.6
20260502151831 66 328 2.6 3.5 0.00 0.00 0.00 70 1021.6
20260502151328 65 310 1.7 1.7 0.00 0.00 0.00 72 1021.3
20260502150826 65 51 2.6 2.6 0.00 0.00 0.00 72 1021.6
20260502150322 64 318 2.6 2.6 0.00 0.00 0.00 74 1021.6
20260502130710 56 26 0.0 0.0 0.00 0.00 0.00 90 1020.3
20260502130208 56 25 0.0 0.0 0.00 0.00 0.00 90 1020.3
20260502123654 54 31 0.0 0.0 0.00 0.00 0.00 94 1019.9
20260502123151 54 31 0.0 0.0 0.00 0.00 0.00 95 1019.9
20260502122647 53 31 0.0 0.0 0.00 0.00 0.00 95 1019.9
20260502122144 53 31 0.0 0.0 0.00 0.00 0.00 95 1019.9
20260502121642 53 31 0.0 0.0 0.00 0.00 0.00 95 1019.9
20260502121139 53 31 0.0 0.0 0.00 0.00 0.00 95 1019.6
20260502120635 53 31 0.0 0.0 0.00 0.00 0.00 95 1019.6
20260502120132 53 31 0.0 0.0 0.00 0.00 0.00 95 1019.6
20260502115630 53 31 0.0 0.0 0.00 0.00 0.00 95 1019.6
20260502115126 53 31 0.0 0.0 0.00 0.00 0.00 95 1019.6
20260502114622 53 31 0.0 0.0 0.00 0.00 0.00 95 1019.6
20260502114120 53 31 0.0 0.0 0.00 0.00 0.00 95 1019.6
20260502113617 53 30 0.0 0.0 0.00 0.00 0.00 95 1019.3
20260502113115 53 30 0.0 0.0 0.00 0.00 0.00 95 1019.3
20260502112613 53 30 0.0 0.0 0.00 0.00 0.00 95 1019.3
20260502112110 53 30 0.0 0.0 0.00 0.00 0.00 95 1019.3
20260502111608 53 37 0.0 0.0 0.00 0.00 0.00 95 1018.9
20260502111105 53 30 0.0 0.0 0.00 0.00 0.00 95 1018.9
20260502110602 53 28 0.0 0.0 0.00 0.00 0.00 95 1018.9
20260502110059 53 28 0.0 0.0 0.00 0.00 0.00 95 1019.3
20260502105557 53 26 0.0 0.0 0.00 0.00 0.00 95 1018.9
20260502105054 53 26 0.0 0.0 0.00 0.00 0.00 95 1018.9
20260502104551 53 25 0.0 0.0 0.00 0.00 0.00 95 1018.9
20260502104048 53 25 0.0 0.0 0.00 0.00 0.00 95 1018.6
20260502103546 53 25 0.0 0.0 0.00 0.00 0.00 95 1018.6
20260502103044 53 25 0.0 0.0 0.00 0.00 0.00 95 1018.9
20260502102540 53 24 0.0 0.0 0.00 0.00 0.00 95 1018.6
20260502102037 53 24 0.0 0.0 0.00 0.00 0.00 95 1018.6
20260502101535 53 24 0.0 0.0 0.00 0.00 0.00 95 1018.6
20260502101033 53 23 0.0 0.0 0.00 0.00 0.00 95 1018.6
20260502100531 53 24 0.0 0.0 0.00 0.00 0.00 95 1018.2
20260502091506 54 23 0.0 0.0 0.00 0.00 0.00 93 1017.5
20260502091004 54 23 0.0 0.0 0.00 0.00 0.00 93 1017.5
20260502090500 55 23 0.0 0.0 0.00 0.00 0.00 93 1017.1
20260502071355 56 4 0.0 0.0 0.00 0.00 0.00 93 1017.1
20260502070853 56 0 0.0 0.0 0.00 0.00 0.00 93 1017.5
20260502070350 55 358 0.0 0.0 0.00 0.00 0.00 93 1017.5
20260502065849 55 354 0.0 0.0 0.00 0.00 0.00 94 1017.5
20260502065347 55 76 0.0 0.0 0.00 0.00 0.00 94 1017.1
20260502064844 55 76 0.0 0.0 0.00 0.00 0.00 95 1017.1
20260502064342 55 61 0.0 0.0 0.00 0.00 0.00 95 1016.8
20260502063839 55 63 0.0 0.0 0.00 0.00 0.00 95 1017.5
20260502063337 55 303 0.0 0.0 0.00 0.00 0.00 95 1017.1
20260502062834 55 288 0.0 0.0 0.00 0.00 0.00 95 1017.1
20260502062331 55 288 0.0 0.0 0.00 0.00 0.00 95 1017.1
20260502061830 55 288 0.0 0.0 0.00 0.00 0.00 95 1016.8
20260502061328 55 279 0.0 0.0 0.00 0.00 0.00 95 1017.1
20260502060823 56 48 0.0 0.0 0.00 0.00 0.00 95 1016.8
20260502060318 56 46 0.0 0.0 0.00 0.00 0.00 95 1016.8
20260502055816 56 356 2.6 3.5 0.00 0.00 0.00 95 1016.8
20260502055314 56 40 0.0 0.0 0.00 0.00 0.00 95 1016.8
20260502054813 56 15 0.0 0.0 0.00 0.00 0.00 95 1016.8
20260502054311 56 36 0.0 0.0 0.00 0.00 0.00 95 1016.8
20260502053808 56 12 0.0 0.0 0.00 0.00 0.00 95 1016.8
20260502053305 56 17 0.0 0.0 0.00 0.00 0.00 96 1016.8
20260502052803 56 33 0.0 0.0 0.00 0.00 0.00 96 1016.8
20260502052301 56 305 2.6 2.6 0.00 0.00 0.00 96 1016.8
20260502051758 56 42 0.0 0.0 0.00 0.00 0.00 96 1016.8
20260502051257 56 57 0.0 0.0 0.00 0.00 0.00 96 1016.8
20260502050752 56 66 0.0 0.0 0.00 0.00 0.00 97 1016.5
20260502050248 56 311 0.0 0.0 0.00 0.00 0.00 97 1016.8
20260502045746 56 52 0.0 0.0 0.00 3.59 3.59 97 1016.8
20260502045243 56 348 0.0 0.0 0.00 3.59 3.59 97 1016.8
20260502044739 56 18 0.0 0.0 0.00 3.59 3.59 97 1016.8
20260502044235 56 330 0.9 0.9 0.00 3.59 3.59 97 1016.5
20260502043733 56 322 1.7 1.7 0.00 3.59 3.59 97 1016.5
20260502043231 56 44 0.0 0.0 0.00 3.59 3.59 97 1016.8
20260502042730 56 288 1.7 1.7 0.00 3.59 3.59 97 1016.8
20260502042228 56 46 1.7 1.7 0.00 3.59 3.59 97 1016.5
20260502041725 56 344 1.7 1.7 0.00 3.59 3.59 97 1016.8
20260502041222 56 344 1.7 1.7 0.00 3.59 3.59 97 1016.8
20260502040719 56 52 3.5 4.3 0.00 3.59 3.59 97 1016.8
20260502040216 56 48 2.6 2.6 0.00 3.59 3.59 97 1016.8
20260502035712 56 283 0.0 0.0 0.00 3.59 3.59 97 1016.8
20260502035209 56 307 1.7 1.7 0.00 3.59 3.59 97 1016.8
20260502034707 56 283 1.7 1.7 0.00 3.59 3.59 97 1016.8
20260502034205 56 300 0.0 0.0 0.00 3.59 3.59 97 1016.5
20260502033702 56 46 0.0 0.0 0.00 3.59 3.59 97 1016.5
20260502033200 56 40 1.7 1.7 0.00 3.59 3.59 97 1016.8
20260502032656 56 318 1.7 1.7 0.00 3.59 3.59 98 1016.5
20260502032152 56 306 1.7 1.7 0.00 3.59 3.59 98 1016.1
20260502031650 56 343 0.9 0.9 0.00 3.59 3.59 98 1016.1
20260502031148 56 26 0.0 0.0 0.00 3.59 3.59 98 1016.1
20260502030647 56 42 4.3 5.2 0.00 3.59 3.59 98 1015.8
20260502030144 56 57 1.7 1.7 0.00 3.59 3.59 98 1015.8
20260502025641 56 282 0.0 0.0 0.06 3.59 3.59 98 1015.8
20260502025139 56 54 1.7 1.7 0.06 3.59 3.59 98 1015.1
20260502024637 56 36 1.7 1.7 0.06 3.59 3.59 98 1015.1
20260502024134 56 309 0.0 0.0 0.06 3.59 3.59 98 1015.1
20260502023633 56 305 0.0 0.0 0.04 3.57 3.57 98 1015.1
20260502023129 56 324 2.6 2.6 0.04 3.57 3.57 98 1014.8
20260502022626 56 293 1.7 1.7 0.03 3.55 3.55 98 1015.1
20260502022123 56 0 0.0 0.0 0.03 3.55 3.55 98 1015.4
20260502021621 56 336 1.7 1.7 0.03 3.55 3.55 98 1015.4
20260502021118 57 10 0.0 0.0 0.01 3.54 3.54 98 1015.1
20260502020615 57 323 1.7 1.7 0.01 3.54 3.54 98 1015.1
20260502020112 57 282 1.7 1.7 0.00 3.52 3.52 98 1014.8
20260502015610 57 336 1.7 1.7 0.09 3.52 3.52 98 1014.8
20260502015106 57 28 1.7 1.7 0.07 3.51 3.51 98 1014.8
20260502014603 58 337 1.7 1.7 0.07 3.51 3.51 98 1015.1
20260502014100 57 283 0.0 0.0 0.07 3.51 3.51 98 1014.8
20260502013555 57 24 1.7 1.7 0.07 3.51 3.51 98 1014.4
20260502013052 57 38 0.0 0.0 0.06 3.49 3.49 98 1014.1
20260502012549 58 47 0.9 0.9 0.06 3.49 3.49 98 1014.1
20260502012047 58 322 1.7 1.7 0.04 3.48 3.48 98 1014.4
20260502011544 58 49 0.0 0.0 0.03 3.46 3.46 98 1014.1
20260502011040 59 309 0.0 0.0 0.01 3.44 3.44 98 1014.1
20260502010537 59 12 0.0 0.0 0.00 3.43 3.43 98 1014.8
20260502010033 59 6 0.0 0.0 0.06 3.43 3.43 98 1014.8
20260502005531 59 6 0.0 0.0 0.06 3.43 3.43 98 1014.8
20260502005029 59 358 0.0 0.0 0.04 3.41 3.41 98 1013.1
20260502004524 58 4 2.6 2.6 0.04 3.41 3.41 98 1012.7
20260502004021 58 54 1.7 1.7 0.03 3.40 3.40 98 1012.4
20260502003520 58 36 1.7 1.7 0.03 3.40 3.40 98 1012.7
20260502003016 59 300 1.7 1.7 0.03 3.40 3.40 98 1013.1
20260502002512 59 283 1.7 1.7 0.01 3.38 3.38 98 1013.4
20260502002010 59 16 0.0 0.0 0.01 3.38 3.38 98 1013.7
20260502001507 59 12 0.0 0.0 0.01 3.38 3.38 98 1013.7
20260502001005 59 18 0.0 0.0 0.01 3.38 3.38 98 1013.1
20260502000503 59 346 1.7 1.7 0.00 3.37 3.37 98 1013.4
20260501235959 59 336 0.0 0.0 0.18 3.37 3.37 98 1013.7
20260501235455 59 321 0.0 0.0 0.17 3.35 3.35 98 1013.7
20260501234950 59 318 0.0 0.0 0.14 3.32 3.32 98 1013.7
20260501234447 59 312 0.0 0.0 0.14 3.32 3.32 98 1012.4
20260501233946 59 306 0.9 0.9 0.14 3.32 3.32 98 1012.4
20260501233443 59 53 1.7 1.7 0.14 3.32 3.32 98 1012.1
20260501232938 59 32 1.7 1.7 0.14 3.32 3.32 98 1012.4
20260501232436 59 47 0.0 0.0 0.14 3.32 3.32 98 1012.1
20260501231933 60 324 0.0 0.0 0.14 3.32 3.32 98 1011.4
20260501231431 59 324 0.0 0.0 0.12 3.30 3.30 98 1012.4
20260501230929 60 42 0.0 0.0 0.07 3.25 3.25 98 1012.4
20260501230428 60 42 0.0 0.0 0.00 3.18 3.18 98 1013.7
20260501225925 60 32 0.0 0.0 0.01 3.16 3.16 97 1012.4
20260501225423 60 53 0.0 0.0 0.00 3.14 3.14 97 1011.4
20260501224918 60 18 0.0 0.0 0.00 3.14 3.14 98 1012.1
20260501224416 60 348 0.0 0.0 0.00 3.14 3.14 98 1011.7
20260501223912 60 349 1.7 1.7 0.00 3.14 3.14 98 1011.0
20260501223408 60 28 1.7 1.7 0.00 3.14 3.14 98 1011.4
20260501222904 60 43 0.0 0.0 0.00 3.14 3.14 98 1011.4
20260501222402 60 36 0.0 0.0 0.00 3.14 3.14 98 1011.0
20260501221858 60 44 0.0 0.0 0.00 3.14 3.14 98 1011.0
20260501221355 60 18 1.7 1.7 0.00 3.14 3.14 98 1011.4
20260501220853 61 16 0.0 0.0 0.00 3.14 3.14 98 1011.7
20260501220350 61 66 1.7 1.7 0.00 3.14 3.14 98 1011.7
20260501215847 61 316 1.7 1.7 0.03 3.14 3.14 98 1011.7
20260501215343 61 348 0.0 0.0 0.03 3.14 3.14 98 1012.1
20260501214839 61 48 0.0 0.0 0.03 3.14 3.14 99 1012.4
20260501214334 61 48 0.0 0.0 0.03 3.14 3.14 99 1012.4
20260501213830 61 46 0.0 0.0 0.03 3.14 3.14 99 1012.7
20260501213327 61 48 0.0 0.0 0.01 3.13 3.13 99 1012.4
20260501212823 61 42 0.0 0.0 0.01 3.13 3.13 98 1012.1
20260501212320 61 42 0.0 0.0 0.00 3.11 3.11 99 1012.1
20260501211817 61 80 0.0 0.0 0.00 3.11 3.11 99 1012.4
20260501211314 61 112 0.0 0.0 0.00 3.11 3.11 99 1011.7
20260501210811 61 46 2.6 2.6 0.00 3.11 3.11 99 1010.7
20260501210308 61 54 1.7 1.7 0.00 3.11 3.11 98 1010.4
20260501205804 61 0 0.0 0.0 0.17 3.11 3.11 99 1011.0
20260501205301 62 355 0.0 0.0 0.17 3.11 3.11 99 1011.7
20260501204758 62 347 0.0 0.0 0.15 3.10 3.10 99 1011.0
20260501204254 62 330 0.9 0.9 0.15 3.10 3.10 99 1011.0
20260501203751 62 12 0.0 0.0 0.14 3.08 3.08 99 1011.7
20260501203249 62 42 0.0 0.0 0.12 3.07 3.07 99 1010.7
20260501202745 62 42 0.0 0.0 0.12 3.07 3.07 99 1010.7
20260501202242 62 44 1.7 1.7 0.12 3.07 3.07 99 1011.4
20260501201739 62 342 0.0 0.0 0.11 3.05 3.05 99 1010.7
20260501201236 62 52 0.0 0.0 0.06 3.00 3.00 99 1010.7
20260501200732 62 342 0.0 0.0 0.01 2.96 2.96 99 1010.7
20260501200230 62 354 0.0 0.0 0.00 2.94 2.94 99 1010.7
20260501195727 62 342 1.7 1.7 0.12 2.92 2.92 99 1010.7
20260501195223 62 292 0.0 0.0 0.12 2.92 2.92 99 1010.4
20260501194719 62 287 0.0 0.0 0.11 2.91 2.91 99 1010.4
20260501194215 62 37 0.0 0.0 0.11 2.91 2.91 99 1010.4
20260501193711 62 22 0.0 0.0 0.09 2.89 2.89 99 1010.4
20260501193210 62 60 0.0 0.0 0.06 2.86 2.86 99 1010.7
20260501192707 62 26 0.0 0.0 0.06 2.86 2.86 99 1010.4
20260501192204 62 23 0.0 0.0 0.06 2.86 2.86 99 1010.7
20260501191701 62 24 0.0 0.0 0.04 2.85 2.85 99 1010.4
20260501191159 62 18 0.0 0.0 0.00 2.80 2.80 99 1010.7
20260501190655 62 18 0.0 0.0 0.00 2.80 2.80 99 1010.7
20260501190150 63 18 0.0 0.0 0.00 2.80 2.80 99 1011.0
20260501185646 62 18 0.0 0.0 0.18 2.80 2.80 99 1010.7
20260501185142 62 16 0.0 0.0 0.17 2.78 2.78 99 1010.7
20260501184638 62 17 0.0 0.0 0.17 2.78 2.78 99 1010.4
20260501184133 62 330 0.0 0.0 0.14 2.75 2.75 99 1010.4
20260501183631 62 282 0.0 0.0 0.09 2.70 2.70 99 1010.7
20260501183127 62 282 0.0 0.0 0.09 2.70 2.70 99 1010.4
20260501182624 62 282 0.0 0.0 0.07 2.69 2.69 99 1010.4
20260501182120 62 0 0.0 0.0 0.07 2.69 2.69 99 1009.7
20260501181618 62 0 0.0 0.0 0.06 2.67 2.67 99 1009.0
20260501181114 62 349 0.9 0.9 0.04 2.66 2.66 99 1008.7
20260501180613 62 54 0.0 0.0 0.01 2.62 2.62 99 1009.7
20260501180108 62 58 0.9 0.9 0.00 2.61 2.61 99 1010.0
20260501175605 62 42 1.7 1.7 0.06 2.61 2.61 99 1010.7
20260501175102 62 337 1.7 1.7 0.04 2.59 2.59 99 1010.7
20260501174559 63 59 0.0 0.0 0.04 2.59 2.59 99 1011.4
20260501174056 63 57 0.0 0.0 0.03 2.58 2.58 99 1011.4
20260501173554 63 18 0.0 0.0 0.03 2.58 2.58 99 1011.4
20260501173050 63 6 0.9 0.9 0.01 2.56 2.56 99 1011.4